Location: Monteux
(44.0348°N, 4.9972°E)
Time: 16:45:25
(UTC+00:00)

SAR-Lupe-4 - Pass Details

Date: 30 November 2020
Orbit: 481 x 484 km, 98.2° (Epoch: 09 January)

Event Time Altitude Azimuth Distance (km) Brightness Sun altitude
Exits shadow 17:54:17 45° 22° (NNE) 673 4.0 -19.4°
Maximum altitude 17:55:18 81° 102° (ESE) 496 3.4 -19.6°
Drops below altitude 10° 17:58:52 10° 191° (SSW) 1,661 6.5 -20.2°
Sets 18:00:55 0° 193° (SSW) 2,537 7.5 -20.5°
